Regional Weather Roundup
Issued by NWS

Home | Current Version | Previous Version | Graphics & Text | Print | Product List | Glossary Off
Versions: 1 2 3 4 5 6 7 8 9 10 11 12 13 14 15 16 17 18 19 20 21 22 23 24 25 26 27 28 29 30 31 32 33 34 35 36 37 38 39 40 41 42 43 44 45 46 47 48 49 50

000
ASUS43 KMPX 241201
RWRMN
WEATHER ROUNDUP FOR MINNESOTA
NATIONAL WEATHER SERVICE TWIN CITIES/CHANHASSEN MN
700 AM CDT TUE MAY 24 2016


NOTE: "FAIR" INDICATES FEW OR NO CLOUDS BELOW 12,000 FEET WITH NO
SIGNIFICANT WEATHER AND/OR OBSTRUCTIONS TO VISIBILITY. N/A MEANS
CURRENT SKY AND/OR WEATHER CONDITIONS ARE NOT AVAILABLE.

MNZ060>063-068>070-241300-
   Twin Cities Metro

CITY           SKY/WX    TMP DP  RH WIND       PRES   REMARKS
TWIN CITIES    MOSUNNY   66  59  78 SW7       29.84R
6HR MIN TEMP:  66; 6HR MAX TEMP:  69; 6HR PCP: TRACE;

ST PAUL        CLOUDY    64  61  90 SE5       29.84R
CRYSTAL        SUNNY     65  60  84 SW6       29.81R
BLAINE         MOSUNNY   64  64 100 SW7       29.82S
EDEN PRAIRIE   SUNNY     65  59  81 SW7       29.83R
6HR MIN TEMP:  64; 6HR MAX TEMP:  68;

SOUTH ST PAUL  MOSUNNY   65  60  83 CALM      29.84R
LAKE ELMO      FAIR      63  61  94 S7        29.84S
$$
MNZ001>005-007-008-013>017-022>024-027-028-241300-
   Northwest Minnesota

CITY           SKY/WX    TMP DP  RH WIND       PRES   REMARKS
BEMIDJI        CLOUDY    56  51  82 W5        29.85R
HALLOCK        DRIZZLE   59  54  82 SW15      29.80R
ROSEAU         CLOUDY    61  52  72 CALM      29.80R
WARROAD        CLOUDY    57  52  82 S3        29.80R
THIEF RVR FALL MOSUNNY   59  48  67 SW7       29.85R
CROOKSTON      TSTM      57  52  82 W6        29.83S
FOSSTON          N/A     55  48  76 NW5       29.85R
DETROIT LAKES  CLOUDY    59  52  77 N5        29.87S
MOORHEAD       SUNNY     61  48  63 NE8       29.82S
PARK RAPIDS    CLOUDY    59  54  83 W6        29.84R
MAHNOMEN       CLOUDY    57  50  78 N6        29.85R
$$
MNZ006-009>011-018-025>026-241300-
   North Central Minnesota

CITY           SKY/WX    TMP DP  RH WIND       PRES   REMARKS
BAUDETTE       PTSUNNY   55  51  86 E3        29.79R
FLAG ISLAND    CLOUDY    59  55  88 CALM      29.78R
INTL FALLS     CLOUDY    55  54  96 CALM      29.80R
6HR MIN TEMP:  49; 6HR MAX TEMP:  56;

WASKISH        CLOUDY    59  55  88 S3        29.81R
BIG FORK       CLOUDY    61  52  72 SW3       29.80R
LONGVILLE      RAIN      55  55 100 E5        29.83F
GRAND RAPIDS     N/A    N/A N/A N/A MISG        N/A
CRANE LAKE     CLOUDY    55  55 100 CALM      29.83S
ORR            CLOUDY    57  55  94 CALM      29.80S
COOK           CLOUDY    59  57  94 CALM      29.83S
WALKER         FAIR      58  53  83 CALM      29.81S
$$
MNZ012-019>021-037-241300-
   Northeast Minnesota

CITY           SKY/WX    TMP DP  RH WIND       PRES   REMARKS
DULUTH         CLOUDY    59  58  96 N7        29.84R FOG
6HR MIN TEMP:  58; 6HR MAX TEMP:  61; 6HR PCP:  0.01;

ELY            CLOUDY    55  54  94 CALM      29.83S
HIBBING        CLOUDY    58  58 100 SE6       29.83S
EVELETH        RAIN      59  59 100 SE7       29.86R
DULUTH HARBOR  FOG       54  52  94 NE10      29.83S THUNDER VSB 3/4
TWO HARBORS    TSTM      63  57  82 W5        29.82S
SILVER BAY     LGT RAIN  59  57  94 CALM      29.83R
GRAND MARAIS     N/A     46  45  96 CALM      29.83R
G MARAIS ARPRT CLOUDY    57  55  94 CALM      29.87R
$$
MNZ029>031-032-039>041-046>048-054>057-064-241300-
   West Central Minnesota

CITY           SKY/WX    TMP DP  RH WIND       PRES   REMARKS
FERGUS FALLS   SUNNY     63  48  59 NE15      29.80R
WHEATON        SUNNY     61  52  72 N10       29.83S
MORRIS         SUNNY     57  55  94 NW6       29.81R
ALEXANDRIA     LGT RAIN  62  58  86 CALM      29.84R
ELBOW LAKE     FAIR      60  54  82 N7        29.83R
WADENA         CLOUDY    59  54  82 E3        29.82R
GLENWOOD       PTSUNNY   57  57 100 CALM      29.82S FOG
APPLETON       MOSUNNY   55  54  94 CALM      29.81R FOG
BENSON         PTSUNNY   57  55  94 CALM      29.82R FOG
ORTONVILLE     SUNNY     59  54  82 N8        29.81S
MADISON        SUNNY     57  55  94 CALM      29.82R FOG
WILLMAR        FOG       61  61 100 CALM      29.83S VSB<1/4
$$
MNZ033>034-036-042>043-049>051-058-059-241300-
   Central Minnesota

CITY           SKY/WX    TMP DP  RH WIND       PRES   REMARKS
ST CLOUD       CLOUDY    61  61 100 S3        29.81S FOG
6HR MIN TEMP:  57; 6HR MAX TEMP:  62;

PAYNESVILLE    FOG       60  60 100 S7        29.82S VSB 1/4
AITKIN         CLOUDY    63  59  88 CALM      29.82R FOG
PINE RIVER     CLOUDY    57  54  88 NE3       29.86F
BRAINERD       TSTM      59  56  89 N8        29.84R
STAPLES        MOSUNNY   61  54  77 E5        29.82S
LONG PRAIRIE   CLOUDY    59  57  94 N3        29.83R FOG
LITTLE FALLS   CLOUDY    59  59 100 CALM      29.83R FOG
LITCHFIELD     FOG       63  63 100 SW5       29.83S VSB<1/4
BUFFALO        SUNNY     63  60  93 S3        29.83S FOG
MAPLE LAKE     SUNNY     63  62  98 S3        29.83R FOG
HUTCHINSON     CLOUDY    64  63  96 SW3       29.84S FOG
$$
MNZ037-044-045-052-053-241300-
   East Central Minnesota

CITY           SKY/WX    TMP DP  RH WIND       PRES   REMARKS
PRINCETON        N/A     64  63  94 S5        29.82R FOG
MORA           CLOUDY    61  59  94 CALM      29.83S
CAMBRIDGE        N/A     64  57  77 CALM      29.80S
RUSH CITY      PTSUNNY   61  60  96 CALM      29.83R
MOOSE LAKE     CLOUDY    59  59 100 CALM      29.81R
HINCKLEY       CLOUDY    61  61 100 CALM      29.81S
CLOQUET        CLOUDY    61  57  88 CALM      29.83R FOG
MCGREGOR       MOSUNNY   59  57  94 CALM      29.84R
$$
MNZ071>073-080-081-089-090-097-098-241300-
   Southwest Minnesota

CITY           SKY/WX    TMP DP  RH WIND       PRES   REMARKS
MONTEVIDEO     FOG       59  59 100 W3        29.83S VSB<1/4
GRANITE FALLS  FOG       63  63  99 S8        29.84R VSB 3/4
CANBY          SUNNY     65  64  94 SW5       29.81S FOG
MARSHALL       CLOUDY    64  62  93 CALM      29.82S FOG
REDWOOD FALLS  SUNNY     61  58  90 S3        29.82S FOG
OLIVIA         FOG       59  57  94 CALM      29.81F VSB<1/4
PIPESTONE      FOG       63  61  94 S6        29.84R VSB 1/4
WINDOM         CLOUDY    63  61  94 SW7       29.85R
WORTHINGTON    CLOUDY    61  59  93 S9        29.87R
JACKSON        CLOUDY    61  55  82 SW9       29.86S
TRACY          SUNNY     64  63  94 SW16      29.82S
SLAYTON        CLOUDY    61  61 100 S8        29.85R FOG
$$
MNZ065>067-074>077-082>085-091>093-241300-
   South Central Minnesota

CITY           SKY/WX    TMP DP  RH WIND       PRES   REMARKS
MANKATO        CLOUDY    64  57  77 SW7       29.84S
NEW ULM        SUNNY     61  61 100 CALM      29.83S FOG
ST JAMES       CLOUDY    57  55  94 S7        29.84S
FAIRMONT       CLOUDY    63  59  88 SW9       29.85R
GLENCOE        MOSUNNY   64  63  94 SW6       29.83R
FARIBAULT      CLOUDY    63  61  94 SW5       29.86R
OWATONNA       CLOUDY    64  59  82 SW5       29.86R
WASECA         MOSUNNY   63  59  88 SW3       29.86S
ALBERT LEA     CLOUDY    64  61  88 CALM      29.86R
$$
MNZ078>079-086>088-094>096-241300-
   Southeast Minnesota

CITY           SKY/WX    TMP DP  RH WIND       PRES   REMARKS
ROCHESTER      CLOUDY    64  61  90 S8        29.87R
6HR MIN TEMP:  64; 6HR MAX TEMP:  67; 6HR PCP:  0.03;

RED WING       PTSUNNY   64  63  94 CALM      29.85R
STANTON        CLOUDY    64  59  86 SW7       29.84R
DODGE CENTER   CLOUDY    63  61  94 SW8       29.86S
WINONA         CLOUDY    63  61  94 CALM      29.87R
AUSTIN         PTSUNNY   63  59  88 CALM      29.86S
PRESTON        CLOUDY    62  58  86 CALM      29.87F
$$
ABBREVIATIONS USED IN REMARKS
   TC - TEMPERATURES IN CELSIUS
  WCI - WIND CHILL INDEX
   HX - HEAT INDEX
  VSB - VISIBILITY
$$




USA.gov is the U.S. government's official web portal to all federal, state and local government web resources and services.